Regional Weather Roundup
Issued by NWS

Home | Current Version | Previous Version | Text Only | Print | Product List | Glossary Off
Versions: 1 2 3 4 5 6 7 8 9 10 11 12 13 14 15 16 17 18 19 20 21 22 23 24 25 26 27 28 29 30 31 32 33 34 35 36 37 38 39 40 41 42 43 44 45 46 47 48 49 50

000
ASUS43 KBIS 291802
RWRND

NORTH DAKOTA REGIONAL WEATHER ROUNDUP
NATIONAL WEATHER SERVICE BISMARCK ND
100 PM CDT MON MAY 29 2017

NOTE: "FAIR" INDICATES FEW OR NO CLOUDS BELOW 12,000 FEET WITH NO
SIGNIFICANT WEATHER AND/OR OBSTRUCTIONS TO VISIBILITY.


NDZ001>003-009>011-017-291900-
NORTHWEST NORTH DAKOTA

CITY           SKY/WX    TMP DP  RH WIND       PRES   REMARKS
WILLISTON      CLOUDY    62  34  35 NW18G26   30.11F
6HR MIN TEMP:  46; 6HR MAX TEMP:  64;

MINOT          CLOUDY    60  39  45 NW25G36   30.00F
MINOT AFB      PTSUNNY   58  40  50 NW24      29.99F
$$

NDZ018>021-031>035-040>046-291900-
SOUTHWEST NORTH DAKOTA

CITY           SKY/WX    TMP DP  RH WIND       PRES   REMARKS
BISMARCK       CLOUDY    61  39  44 NW22G31   30.04S
6HR MIN TEMP:  51; 6HR MAX TEMP:  62;

DICKINSON      PTSUNNY   58  33  39 NW20G28   30.08F
GARRISON         N/A     59  37  44 NW30G40   30.02S
6HR MIN TEMP:  47; 6HR MAX TEMP:  60;

HETTINGER ARPT PTSUNNY   63  35  35 N23G33    30.12S
$$

NDZ004>008-012>016-024-026-027-054-291900-
NORTHEAST NORTH DAKOTA

CITY           SKY/WX    TMP DP  RH WIND       PRES   REMARKS
GRAND FORKS    CLOUDY    59  47  64 NW22G29   29.85S
GRND FRKS AFB  LGT RAIN  57  47  70 NW16      29.87R
DEVILS LAKE    CLOUDY    55  44  66 NW22      29.92S
$$

NDZ022-023-025-028>030-036>039-047>053-291900-
SOUTHEAST NORTH DAKOTA

CITY           SKY/WX    TMP DP  RH WIND       PRES   REMARKS
FARGO          CLOUDY    58  49  72 NW21G26   29.89R
6HR MIN TEMP:  51; 6HR MAX TEMP:  58; 6HR PCP:  0.03;

$$





USA.gov is the U.S. government's official web portal to all federal, state and local government web resources and services.